EUTELSAT KONNECT VHTS

Last updated on Tue Jul 08 2025 00:02:48 GMT+0000 (Coordinated Universal Time)

1 53765U 22110A 25188.56410947 .00000034 00000+0 00000+0 0 9997 2 53765 0.0528 94.8075 0002732 13.4015 23.3745 1.00268394 3374
UTC large
Height (km)
Speed (km/s)
/
Latitude / Longitude
Inclination (degrees)
Orbital Period (minutes)
Azimuth
Elevation
Range (km)
Doppler Factor

Next 0 passes for location: London (51.5072 / 0.1276)

Sorry there are no passes over London.